When you browse on this site, cookies collect data to enhance your experience and personalize the content and advertising you see.
Visit our Privacy Policy to learn more. By continuing to use the site, you agree to this use of cookies and data.
  • In Spain
  • List of Countries
  • For 7 days
  • Water Temperature
  • Satellite Maps
  • Weather Map
  • Weather Widgets
  • user-avatar
    Login

    Hourly Weather Blagoevgrad

    Today, 13 December, Thursday

    Time Temperature Precipitation Wind Pressure Humidity
    00:00 0°C° 0 mm 1 mps 722 mmHg 64%
    01:00 0°C° 0 mm 1 mps 723 mmHg 62%
    02:00 0°C° 0 mm 1 mps 722 mmHg 60%
    03:00 0°C° 0 mm 1 mps 722 mmHg 59%
    04:00 0°C° 0 mm 1 mps 722 mmHg 57%
    05:00 0°C° 0 mm 1 mps 722 mmHg 56%
    06:00 0°C° 0 mm 1 mps 722 mmHg 55%
    07:00 0°C° 0 mm 1 mps 722 mmHg 54%
    08:00 0°C° 0 mm 1 mps 722 mmHg 53%
    09:00 +1°C° 0 mm 1 mps 722 mmHg 47%
    10:00 +3°C° 0 mm 1 mps 722 mmHg 41%
    11:00 +5°C° 0 mm 1 mps 722 mmHg 35%
    12:00 +5°C° 0 mm 1 mps 722 mmHg 34%
    13:00 +6°C° 0 mm 1 mps 722 mmHg 34%
    14:00 +6°C° 0 mm 1 mps 721 mmHg 33%
    15:00 +5°C° 0 mm 1 mps 721 mmHg 38%
    16:00 +4°C° 0 mm 1 mps 721 mmHg 44%
    17:00 +3°C° 0 mm 1 mps 721 mmHg 50%
    18:00 +2°C° 0 mm 1 mps 721 mmHg 53%
    19:00 +2°C° 0 mm 1 mps 721 mmHg 57%
    20:00 +1°C° 0 mm 1 mps 721 mmHg 60%
    21:00 +1°C° 0 mm 1 mps 721 mmHg 63%
    22:00 +1°C° 0 mm 1 mps 721 mmHg 67%
    23:00 +1°C° 0 mm 1 mps 721 mmHg 70%

    Tomorrow, 14 December, Friday

    Time Temperature Precipitation Wind Pressure Humidity
    00:00 +2°C° 0 mm 1 mps 721 mmHg 73%
    01:00 +2°C° 0 mm 1 mps 721 mmHg 76%
    02:00 +2°C° 0 mm 1 mps 721 mmHg 79%
    03:00 +2°C° 0 mm 1 mps 721 mmHg 80%
    04:00 +2°C° 0 mm 1 mps 721 mmHg 82%
    05:00 +3°C° 0 mm 1 mps 721 mmHg 83%
    06:00 +3°C° 0.2 mm 1 mps 721 mmHg 84%
    07:00 +3°C° 0.2 mm 1 mps 721 mmHg 85%
    08:00 +3°C° 0.2 mm 1 mps 721 mmHg 86%
    09:00 +5°C° 0.2 mm 1 mps 721 mmHg 82%
    10:00 +6°C° 0.2 mm 1 mps 722 mmHg 78%
    11:00 +7°C° 0.2 mm 1 mps 722 mmHg 74%
    12:00 +7°C° 0.1 mm 2 mps 722 mmHg 74%
    13:00 +7°C° 0.1 mm 2 mps 721 mmHg 74%
    14:00 +8°C° 0.1 mm 2 mps 721 mmHg 74%
    15:00 +7°C° 0.2 mm 2 mps 721 mmHg 79%
    16:00 +6°C° 0.2 mm 2 mps 721 mmHg 84%
    17:00 +6°C° 0.2 mm 1 mps 721 mmHg 89%
    18:00 +5°C° 0 mm 2 mps 721 mmHg 90%
    19:00 +5°C° 0 mm 2 mps 721 mmHg 91%
    20:00 +4°C° 0 mm 2 mps 721 mmHg 92%
    21:00 +4°C° 0 mm 2 mps 721 mmHg 93%
    22:00 +5°C° 0 mm 2 mps 721 mmHg 93%
    23:00 +5°C° 0 mm 2 mps 721 mmHg 93%

    Day after tomorrow, 15 December, Saturday

    Time Temperature Precipitation Wind Pressure Humidity
    00:00 +5°C° 0 mm 2 mps 721 mmHg 93%
    01:00 +5°C° 0 mm 2 mps 721 mmHg 93%
    02:00 +5°C° 0 mm 2 mps 721 mmHg 94%
    03:00 +5°C° 0 mm 2 mps 720 mmHg 94%
    04:00 +5°C° 0 mm 2 mps 720 mmHg 94%
    05:00 +5°C° 0 mm 2 mps 720 mmHg 94%
    06:00 +5°C° 0 mm 2 mps 720 mmHg 94%
    07:00 +5°C° 0 mm 2 mps 720 mmHg 94%
    08:00 +5°C° 0 mm 2 mps 720 mmHg 94%
    09:00 +6°C° 0 mm 2 mps 720 mmHg 90%
    10:00 +8°C° 0 mm 2 mps 720 mmHg 86%
    11:00 +9°C° 0 mm 2 mps 720 mmHg 83%
    12:00 +9°C° 0.1 mm 2 mps 720 mmHg 82%
    13:00 +9°C° 0.1 mm 2 mps 719 mmHg 80%
    14:00 +10°C° 0.1 mm 2 mps 719 mmHg 79%
    15:00 +9°C° 0.1 mm 2 mps 719 mmHg 83%
    16:00 +8°C° 0.1 mm 2 mps 718 mmHg 87%
    17:00 +7°C° 0.1 mm 2 mps 718 mmHg 90%
    18:00 +7°C° 0 mm 2 mps 718 mmHg 91%
    19:00 +7°C° 0 mm 2 mps 718 mmHg 91%
    20:00 +6°C° 0 mm 2 mps 718 mmHg 91%
    21:00 +6°C° 0.1 mm 2 mps 718 mmHg 92%
    22:00 +6°C° 0.1 mm 2 mps 718 mmHg 92%
    23:00 +6°C° 0.1 mm 2 mps 718 mmHg 92%

    16 December, Sunday

    Time Temperature Precipitation Wind Pressure Humidity
    00:00 +6°C° 0.2 mm 2 mps 718 mmHg 92%
    01:00 +6°C° 0.2 mm 2 mps 718 mmHg 93%
    02:00 +7°C° 0.2 mm 1 mps 718 mmHg 93%
    03:00 +7°C° 0.3 mm 1 mps 718 mmHg 93%
    04:00 +7°C° 0.3 mm 1 mps 718 mmHg 93%
    05:00 +7°C° 0.3 mm 1 mps 718 mmHg 93%
    06:00 +7°C° 0.4 mm 1 mps 718 mmHg 93%
    07:00 +7°C° 0.4 mm 1 mps 718 mmHg 93%
    08:00 +7°C° 0.4 mm 1 mps 718 mmHg 93%
    09:00 +7°C° 0.8 mm 1 mps 718 mmHg 91%
    10:00 +6°C° 0.8 mm 2 mps 719 mmHg 90%
    11:00 +6°C° 0.8 mm 2 mps 719 mmHg 88%
    12:00 +5°C° 0.7 mm 2 mps 719 mmHg 86%
    13:00 +5°C° 0.7 mm 2 mps 719 mmHg 84%
    14:00 +5°C° 0.7 mm 2 mps 719 mmHg 82%
    15:00 +4°C° 0.1 mm 2 mps 719 mmHg 83%
    16:00 +3°C° 0.1 mm 2 mps 719 mmHg 84%
    17:00 +3°C° 0.1 mm 2 mps 720 mmHg 86%
    18:00 +2°C° 0 mm 2 mps 720 mmHg 86%
    19:00 +1°C° 0 mm 2 mps 721 mmHg 86%
    20:00 -1°C° 0 mm 2 mps 721 mmHg 87%
    21:00 -2°C° 0 mm 2 mps 721 mmHg 85%
    22:00 -2°C° 0 mm 2 mps 721 mmHg 83%
    23:00 -2°C° 0 mm 2 mps 721 mmHg 81%

    17 December, Monday

    Time Temperature Precipitation Wind Pressure Humidity
    00:00 -2°C° 0 mm 2 mps 721 mmHg 79%
    01:00 0°C° 0 mm 1 mps 721 mmHg 76%
    02:00 0°C° 0 mm 1 mps 721 mmHg 74%
    03:00 0°C° 0 mm 1 mps 721 mmHg 72%
    04:00 0°C° 0 mm 1 mps 721 mmHg 70%
    05:00 0°C° 0 mm 1 mps 721 mmHg 68%
    06:00 +1°C° 0 mm 1 mps 721 mmHg 66%
    07:00 +1°C° 0 mm 1 mps 721 mmHg 64%
    08:00 +2°C° 0 mm 1 mps 721 mmHg 62%
    09:00 +3°C° 0 mm 1 mps 721 mmHg 59%
    10:00 +4°C° 0 mm 1 mps 721 mmHg 56%
    11:00 +6°C° 0 mm 1 mps 722 mmHg 53%
    12:00 +6°C° 0 mm 1 mps 721 mmHg 51%
    13:00 +7°C° 0 mm 1 mps 721 mmHg 50%
    14:00 +8°C° 0 mm 1 mps 721 mmHg 48%
    15:00 +6°C° 0 mm 1 mps 721 mmHg 53%
    16:00 +5°C° 0 mm 1 mps 721 mmHg 59%
    17:00 +3°C° 0 mm 1 mps 721 mmHg 64%
    18:00 +3°C° 0 mm 1 mps 722 mmHg 64%
    19:00 +3°C° 0 mm 1 mps 722 mmHg 64%
    20:00 +2°C° 0 mm 1 mps 722 mmHg 65%
    21:00 +2°C° 0 mm 1 mps 723 mmHg 65%
    22:00 +2°C° 0 mm 1 mps 723 mmHg 64%
    23:00 +2°C° 0 mm 1 mps 723 mmHg 64%

    18 December, Tuesday

    Time Temperature Precipitation Wind Pressure Humidity
    00:00 +2°C° 0 mm 1 mps 723 mmHg 64%
    01:00 +2°C° 0 mm 1 mps 723 mmHg 64%
    02:00 +1°C° 0 mm 1 mps 723 mmHg 63%
    03:00 +2°C° 0 mm 1 mps 723 mmHg 63%
    04:00 +2°C° 0 mm 1 mps 723 mmHg 64%
    05:00 +2°C° 0 mm 1 mps 723 mmHg 64%
    06:00 +2°C° 0 mm 1 mps 723 mmHg 65%
    07:00 +2°C° 0 mm 1 mps 723 mmHg 67%
    08:00 +2°C° 0 mm 1 mps 724 mmHg 68%
    09:00 +3°C° 0 mm 1 mps 724 mmHg 65%
    10:00 +4°C° 0 mm 1 mps 724 mmHg 61%
    11:00 +6°C° 0 mm 1 mps 724 mmHg 58%
    12:00 +6°C° 0 mm 1 mps 724 mmHg 59%
    13:00 +6°C° 0 mm 1 mps 723 mmHg 60%
    14:00 +6°C° 0 mm 1 mps 723 mmHg 61%
    15:00 +5°C° 0 mm 1 mps 723 mmHg 67%
    16:00 +4°C° 0 mm 1 mps 723 mmHg 72%
    17:00 +3°C° 0 mm 1 mps 723 mmHg 78%
    18:00 +3°C° 0 mm 1 mps 723 mmHg 79%
    19:00 +2°C° 0 mm 1 mps 723 mmHg 81%
    20:00 +1°C° 0 mm 2 mps 723 mmHg 82%
    21:00 -1°C° 0 mm 2 mps 723 mmHg 82%
    22:00 -1°C° 0 mm 2 mps 723 mmHg 82%
    23:00 -1°C° 0 mm 2 mps 723 mmHg 82%
    Show more